Погода в Эдинбурге

Великобритания     55°57′00″N   3°12′29″W
темп.,
°C
ветер,
м/с
пор.,
м/с
влажн.,
%
обл.,
%
осадки,
мм/ч
давл.,
гПа
погр.,
м
12 апреля, пн
пн1201:00+1зюз11751 0.6 102534
04:00−1зюз22793 0.0 102679
07:00−1зюз23762 0.0 1027115
10:00+3з23540 0.0 1028626
13:00+7зсз23324 0.0 10281799
16:00+8сз34336 0.0 10281783
19:00+7з24365 0.0 10281126
22:00+3зюз355411 0.0 1030161
13 апреля, вт
вт1301:00+1зюз236571 0.0 103195
04:000зюз23705 0.0 103298
07:000зюз2273100 0.0 103295
10:00+5зсз22555 0.0 1032519
13:00+8ссз12355 0.0 10321030
16:00+9св23385 0.0 10311368
19:00+8в224740 0.0 1031201
22:00+5ю12655 0.0 103244
14 апреля, ср
ср1401:00+4зсз11775 0.0 103362
04:00+2зсз11819 0.0 103440
07:00+2зюз11838 0.0 103448
10:00+6всв11645 0.0 1035402
13:00+8всв32556 0.0 1035674
16:00+8всв44555 0.0 1034527
19:00+7всв34595 0.0 1034329
22:00+5всв247566 0.0 1035169
15 апреля, чт
чт1501:00+4всв127355 0.0 103588
04:00+3всв12755 0.0 103554
07:00+3в1173100 0.0 103662
10:00+6всв2358100 0.0 1035477
13:00+7всв445246 0.0 1035907
16:00+8св55502 0.0 1034754
19:00+7всв46595 0.0 1033507
22:00+4вюв25720 0.0 1034218
16 апреля, пт
пт1601:00+3в12760 0.0 1034102
04:00+2в11785 0.0 103456
07:00+2всв12785 0.0 103595
10:00+6всв246611 0.0 1035680
13:00+8св456132 0.0 10341035
16:00+8св665616 0.0 1034931
19:00+7в57625 0.0 1034567
22:00+4в36759 0.0 1035266